Regional Weather Roundup
Issued by NWS Kansas City/Pleasant Hill, MO

Home | Current Version | Previous Version | Graphics & Text | Print | Product List | Glossary Off
Versions: 1 2 3 4 5 6 7 8 9 10 11 12 13 14 15 16 17 18 19 20 21 22 23 24 25 26 27 28

000
ASUS43 KEAX 271810
RWREAX

WEATHER ROUNDUP FOR EASTERN KANSAS AND NORTHWEST MISSOURI
NATIONAL WEATHER SERVICE KANSAS CITY/PLEASANT HILL MO
100 PM CDT SAT MAY 27 2017

KSZ040-057-103>105-MOZ028-029-037-043-271900-
...KANSAS CITY METROPOLITAN AREA...

CITY           SKY/WX    TMP DP  RH WIND       PRES   REMARKS
K.C. INTL      LGT RAIN  64  60  87 E23G31    29.73F
6HR MIN TEMP:  60; 6HR MAX TEMP:  70; 6HR PCP:  0.37;

K.C. DOWNTOWN  LGT RAIN  65  61  87 E21G30    29.71F
6HR MIN TEMP:  65; 6HR MAX TEMP:  72; 6HR PCP:  0.06;

LEES SUMMIT    TSTM      65  60  84 E20G33    29.79F
6HR MIN TEMP:  65; 6HR MAX TEMP:  74; 6HR PCP:  0.25;

OLATHE - IXD   CLOUDY    63  59  87 E15G21    29.79R
6HR MIN TEMP:  61; 6HR MAX TEMP:  75; 6HR PCP:  0.94;

OLATHE - OJC   CLOUDY    62  61  96 E9G21     29.77F
6HR MIN TEMP:  61; 6HR MAX TEMP:  75; 6HR PCP:  0.66;

LAWRENCE       CLOUDY    67  62  84 SE16G30   29.78F

$$

MOZ001>008-011>017-020>025-030>033-038>040-044>046-053-054-271900-
...NORTHERN AND CENTRAL MISSOURI...

CITY           SKY/WX    TMP DP  RH WIND       PRES   REMARKS
ST. JOSEPH     CLOUDY    67  64  90 NE8       29.77F
6HR MIN TEMP:  61; 6HR MAX TEMP:  68; 6HR PCP:  0.40;

MOSBY          TSTM      66  59  77 E12       29.85F
WARRENSBURG    PTSUNNY   72  61  68 N13G21    29.85S
WHITEMAN AFB   PTSUNNY   75  72  91 NE12      29.84R
6HR MIN TEMP:  67; 6HR MAX TEMP:  79; 6HR PCP: TRACE;

CLINTON        CLOUDY    77  72  83 E12       29.81F
SEDALIA        TSTM      74  71  91 N9        29.84F FOG
6HR MIN TEMP:  67; 6HR MAX TEMP:  83; 6HR PCP:  0.18;

WARSAW         NOT AVBL
CHILLICOTHE      N/A     73  63  70 NW5       29.91S
6HR MIN TEMP:  63; 6HR MAX TEMP:  73; 6HR PCP:  0.17;

KIRKSVILLE     PTSUNNY   75  62  64 W6        29.91S
6HR MIN TEMP:  62; 6HR MAX TEMP:  77;


$$

MOZ041-047>049-056>058-063>065-088>090-097-271900-
...EASTERN AND SOUTHERN MISSOURI...

CITY           SKY/WX    TMP DP  RH WIND       PRES   REMARKS
ST. LOUIS INTL PTSUNNY   82  63  52 E3        29.88F
6HR MIN TEMP:  70; 6HR MAX TEMP:  84;

SPIRIT OF STL  CLOUDY    77  66  68 E8        29.85F
COLUMBIA       PTSUNNY   78  63  59 NE9       29.83F THUNDER
JEFFERSON CITY TSTM      79  67  66 S8        29.83F
ROLLA          CLOUDY    73  69  87 N10       29.87R
OSAGE BEACH    PTSUNNY   79  72  78 SE9       29.82F
SPRINGFIELD    SUNNY     83  72  69 S13       29.77F
BRANSON        MOSUNNY   86  72  62 S9G16     29.86F HX  92
JOPLIN         CLOUDY    80  76  87 S14       29.75F
WEST PLAINS    MOSUNNY   83  73  72 SW8       29.90F

$$

IAZ060-094-KSZ022-034>040-054-083-096-NEZ052-066-093-271900-
...KANSAS...SOUTHEAST NEBRASKA AND IOWA...

CITY           SKY/WX    TMP DP  RH WIND       PRES   REMARKS
TOPEKA         CLOUDY    72  64  76 SW5       29.79R
6HR MIN TEMP:  61; 6HR MAX TEMP:  72; 6HR PCP:  0.48;

MANHATTAN      CLOUDY    71  61  70 VRB3      29.84R
EMPORIA        MOSUNNY   78  60  53 NE8       29.80F
CHANUTE        CLOUDY    76  66  71 N13G22    29.76F
WICHITA        PTSUNNY   77  60  55 NE22G30   29.80F
OMAHA          PTSUNNY   68  57  68 VRB7      29.88S
LINCOLN        SUNNY     69  57  65 NE13      29.89F
FALLS CITY     CLOUDY    65  61  87 NE8       29.82F
LAMONI         CLOUDY    67  62  84 SW12G22   29.87R
DES MOINES     LGT RAIN  66  61  84 CALM      29.88F

$$





USA.gov is the U.S. government's official web portal to all federal, state and local government web resources and services.